Mattoon, IL

6:30 PM CDT on October 22, 2019 (GMT -0500)
Coles County Memorial

Weather History for KMTO - May, 2019

Change the Weather History Date:

Friday, May 3, 2019

  Actual Average Record
Temperature  
Mean Temperature 54 °F 60 °F  
Max Temperature 59 °F 69 °F 87 °F (1949)
Min Temperature 48 °F 50 °F 30 °F (2005)
Degree Days  
Heating Degree Days 11 6  
Month to date heating degree days 15 20  
Since 1 July heating degree days 5402 5282  
Cooling Degree Days 0 1  
Month to date cooling degree days 1 3  
Year to date cooling degree days 6 17  
Growing Degree Days 2 (Base 50)    
Moisture  
Dew Point 50 °F    
Average Humidity 85    
Maximum Humidity 93    
Minimum Humidity 77    
Precipitation  
Precipitation T in 0.16 in 1.82 in (1998)
Month to date precipitation 0.22 0.48  
Year to date precipitation 9.24 10.46  
Sea Level Pressure  
Sea Level Pressure 30.02 in    
Wind  
Wind Speed 11 mph (NNE)    
Max Wind Speed 16 mph    
Max Gust Speed 20 mph    
Visibility 8 miles    
Events Rain    
T = Trace of Precipitation, MM = Missing Value Source: NWS Daily Summary

Daily Weather History Graph

Daily Weather History Graph

Search for Another Location

Airport or City:

Astronomy

May. 03, 2019 Rise Set
Actual Time 5:52 AM CDT 7:48 PM CDT
Civil Twilight 5:22 AM CDT 8:17 PM CDT
Nautical Twilight 4:47 AM CDT 8:53 PM CDT
Astronomical Twilight 4:08 AM CDT 9:32 PM CDT
Moon 5:32 AM CDT (5/3) 6:36 PM CDT (5/3)
Length of Visible Light 14h 55m
Length of Day
13h 56m
Waning Crescent, 2% of the Moon is Illuminated
May 3
Waning Crescent
May 4
New
May 11
First Quarter
May 18
Full
May 26
Last Quarter

Hourly Weather History & Observations

Time (CDT) Temp. Dew Point Humidity Pressure Visibility Wind Dir Wind Speed Gust Speed Precip Events Conditions
12:12 AM 55.9 °F 54.0 °F 93% 30.04 in 5.0 mi North 11.5 mph - 0.00 in Rain Light Rain
12:53 AM 55.0 °F 54.0 °F 96% 30.04 in 4.0 mi North 11.5 mph - 0.00 in Rain Light Rain
1:53 AM 53.1 °F 51.1 °F 93% 30.04 in 4.0 mi North 11.5 mph - 0.00 in   Overcast
2:53 AM 51.1 °F 48.9 °F 92% 30.04 in 6.0 mi North 12.7 mph - N/A   Overcast
3:53 AM 50.0 °F 48.9 °F 96% 30.02 in 4.0 mi NNE 10.4 mph - N/A   Overcast
4:53 AM 48.9 °F 46.9 °F 93% 30.01 in 6.0 mi North 13.8 mph - N/A   Overcast
5:53 AM 48.9 °F 46.9 °F 93% 30.01 in 8.0 mi NNE 13.8 mph - N/A   Overcast
6:53 AM 48.9 °F 46.9 °F 93% 30.03 in 5.0 mi NNE 12.7 mph - N/A   Overcast
7:48 AM 48.2 °F 46.4 °F 93% 30.03 in 6.0 mi North 10.4 mph - N/A   Overcast
7:53 AM 48.9 °F 46.9 °F 93% 30.03 in 5.0 mi North 9.2 mph - N/A   Overcast
8:00 AM 48.9 °F 46.9 °F 93% 30.03 in 6.0 mi NNE 12.7 mph - N/A   Overcast
8:53 AM 50.0 °F 48.0 °F 93% 30.04 in 9.0 mi NNE 13.8 mph - N/A   Overcast
9:53 AM 52.0 °F 48.9 °F 89% 30.06 in 10.0 mi North 11.5 mph - N/A   Overcast
10:53 AM 53.1 °F 48.9 °F 86% 30.04 in 10.0 mi North 12.7 mph - N/A   Overcast
11:53 AM 55.0 °F 50.0 °F 83% 30.04 in 10.0 mi NNE 9.2 mph - N/A   Overcast
12:53 PM 55.9 °F 51.1 °F 84% 30.03 in 10.0 mi NNE 10.4 mph - N/A   Overcast
1:53 PM 55.9 °F 51.1 °F 84% 30.02 in 10.0 mi North 10.4 mph - N/A   Overcast
2:14 PM 57.0 °F 51.1 °F 81% 30.02 in 10.0 mi North 9.2 mph - N/A   Overcast
2:53 PM 57.0 °F 52.0 °F 83% 30.02 in 10.0 mi North 10.4 mph - N/A   Overcast
3:53 PM 57.9 °F 52.0 °F 81% 30.01 in 10.0 mi North 8.1 mph - N/A   Overcast
4:53 PM 57.9 °F 52.0 °F 81% 30.00 in 10.0 mi NNE 8.1 mph - N/A   Overcast
5:53 PM 57.9 °F 52.0 °F 81% 29.98 in 10.0 mi NNE 11.5 mph - N/A   Overcast
6:53 PM 57.0 °F 51.1 °F 81% 29.99 in 10.0 mi NNE 8.1 mph - N/A   Overcast
7:53 PM 57.0 °F 51.1 °F 81% 30.00 in 10.0 mi NNE 8.1 mph - N/A   Overcast
8:53 PM 55.9 °F 52.0 °F 87% 30.00 in 10.0 mi NE 5.8 mph - N/A   Overcast
9:53 PM 55.9 °F 51.1 °F 84% 30.00 in 10.0 mi NNE 8.1 mph - 0.00 in Rain Light Rain
10:53 PM 54.0 °F 48.9 °F 83% 29.99 in 10.0 mi NE 11.5 mph - 0.00 in   Overcast
11:01 PM 54.0 °F 48.9 °F 83% 29.98 in 10.0 mi NE 11.5 mph - N/A   Overcast
11:19 PM 54.0 °F 48.0 °F 80% 29.98 in 10.0 mi NE 8.1 mph - N/A   Overcast
11:53 PM 53.1 °F 46.9 °F 80% 29.98 in 10.0 mi ENE 11.5 mph - N/A   Overcast